| time (UTC) | temp F | wind direction | speed MPH | gust MPH | rain 1hr in | rain 24hr in | rain mn in | humidity % | barometer mb |
| 20260906141325 | 73 | 25 | 0.0 | 2.0 | 0.00 | 0.53 | 0.00 | 86 | 1010.7 |
| 20260906141213 | 73 | 33 | 0.0 | 2.0 | 0.00 | 0.53 | 0.00 | 86 | 1010.7 |
| 20260906140113 | 73 | 31 | 0.0 | 1.0 | 0.00 | 0.53 | 0.00 | 87 | 1010.7 |
| 20260906135613 | 73 | 31 | 0.0 | 3.0 | 0.00 | 0.53 | 0.00 | 87 | 1010.7 |
| 20260906135113 | 72 | 30 | 0.0 | 3.0 | 0.00 | 0.53 | 0.00 | 87 | 1010.6 |
| 20260906134611 | 72 | 25 | 0.0 | 2.0 | 0.00 | 0.53 | 0.00 | 89 | 1010.6 |
| 20260906134109 | 71 | 22 | 0.0 | 2.0 | 0.00 | 0.53 | 0.00 | 91 | 1010.5 |
| 20260906133834 | 71 | 231 | 0.0 | 2.0 | 0.00 | 0.53 | 0.00 | 91 | 1010.4 |
| 20260906133109 | 71 | 70 | 0.0 | 1.0 | 0.00 | 0.53 | 0.00 | 91 | 1010.3 |
| 20260906132611 | 71 | 151 | 0.0 | 1.0 | 0.00 | 0.53 | 0.00 | 92 | 1010.4 |
| 20260906132107 | 71 | 221 | 0.0 | 0.0 | 0.00 | 0.53 | 0.00 | 92 | 1010.3 |
| 20260906131608 | 71 | 33 | 0.0 | 1.0 | 0.00 | 0.53 | 0.00 | 92 | 1010.3 |
| 20260906131108 | 71 | 33 | 0.0 | 1.0 | 0.00 | 0.53 | 0.00 | 91 | 1010.4 |
| 20260906130601 | 71 | 34 | 0.0 | 0.0 | 0.00 | 0.53 | 0.00 | 92 | 1010.3 |
| 20260906130054 | 71 | 34 | 0.0 | 1.0 | 0.00 | 0.53 | 0.00 | 91 | 1010.5 |
| 20260906125548 | 71 | 34 | 0.0 | 1.0 | 0.00 | 0.53 | 0.00 | 91 | 1010.5 |
| 20260906125042 | 71 | 34 | 0.0 | 1.0 | 0.00 | 0.53 | 0.00 | 91 | 1010.6 |
| 20260906125016 | 71 | 34 | 0.0 | 1.0 | 0.00 | 0.53 | 0.00 | 91 | 1010.6 |
| 20260906124030 | 71 | 33 | 0.0 | 1.0 | 0.00 | 0.53 | 0.00 | 91 | 1010.6 |
| 20260906123524 | 71 | 34 | 0.0 | 1.0 | 0.00 | 0.53 | 0.00 | 91 | 1010.6 |
| 20260906123018 | 71 | 34 | 0.0 | 1.0 | 0.00 | 0.53 | 0.00 | 91 | 1010.5 |
| 20260906122511 | 70 | 34 | 0.0 | 2.0 | 0.00 | 0.53 | 0.00 | 92 | 1010.3 |
| 20260906122005 | 70 | 37 | 0.0 | 1.0 | 0.00 | 0.53 | 0.00 | 92 | 1010.2 |
| 20260906121500 | 70 | 37 | 0.0 | 1.0 | 0.00 | 0.53 | 0.00 | 92 | 1010.1 |
| 20260906120954 | 70 | 37 | 1.0 | 2.0 | 0.00 | 0.53 | 0.00 | 93 | 1010.1 |
| 20260906120448 | 70 | 41 | 0.0 | 2.0 | 0.00 | 0.53 | 0.00 | 94 | 1010.0 |
| 20260906115942 | 69 | 155 | 0.0 | 0.0 | 0.00 | 0.53 | 0.00 | 95 | 1010.1 |
| 20260906115653 | 69 | 156 | 0.0 | 0.0 | 0.00 | 0.53 | 0.00 | 96 | 1010.1 |
| 20260906114930 | 69 | 156 | 0.0 | 0.0 | 0.00 | 0.53 | 0.00 | 96 | 1010.0 |
| 20260906114649 | 69 | 157 | 0.0 | 0.0 | 0.00 | 0.53 | 0.00 | 96 | 1009.9 |
| 20260906113918 | 69 | 156 | 0.0 | 0.0 | 0.00 | 0.53 | 0.00 | 96 | 1009.8 |
| 20260906113412 | 69 | 157 | 0.0 | 0.0 | 0.00 | 0.53 | 0.00 | 96 | 1009.7 |
| 20260906112905 | 69 | 157 | 0.0 | 0.0 | 0.00 | 0.53 | 0.00 | 96 | 1009.6 |
| 20260906112400 | 69 | 156 | 0.0 | 0.0 | 0.00 | 0.53 | 0.00 | 96 | 1009.6 |
| 20260906111854 | 69 | 157 | 0.0 | 0.0 | 0.00 | 0.53 | 0.00 | 96 | 1009.5 |
| 20260906111348 | 69 | 156 | 0.0 | 0.0 | 0.00 | 0.53 | 0.00 | 97 | 1009.4 |
| 20260906110842 | 69 | 156 | 0.0 | 0.0 | 0.00 | 0.53 | 0.00 | 97 | 1009.4 |
| 20260906110336 | 69 | 156 | 0.0 | 0.0 | 0.00 | 0.53 | 0.00 | 97 | 1009.3 |
| 20260906105830 | 69 | 157 | 0.0 | 0.0 | 0.00 | 0.53 | 0.00 | 97 | 1009.2 |
| 20260906105324 | 69 | 157 | 0.0 | 0.0 | 0.00 | 0.53 | 0.00 | 97 | 1009.2 |
| 20260906104819 | 70 | 157 | 0.0 | 0.0 | 0.00 | 0.53 | 0.00 | 97 | 1009.1 |
| 20260906104312 | 70 | 157 | 0.0 | 0.0 | 0.00 | 0.53 | 0.00 | 97 | 1009.1 |
| 20260906103806 | 70 | 156 | 0.0 | 0.0 | 0.00 | 0.53 | 0.00 | 97 | 1009.1 |
| 20260906103528 | 70 | 156 | 0.0 | 0.0 | 0.00 | 0.53 | 0.00 | 97 | 1009.1 |
| 20260906103247 | 70 | 156 | 0.0 | 0.0 | 0.00 | 0.53 | 0.00 | 97 | 1008.9 |
| 20260906103152 | 70 | 156 | 0.0 | 0.0 | 0.00 | 0.53 | 0.00 | 97 | 1009.0 |
| 20260906101741 | 70 | 156 | 0.0 | 0.0 | 0.00 | 0.53 | 0.00 | 97 | 1008.8 |
| 20260906101236 | 70 | 156 | 0.0 | 0.0 | 0.00 | 0.53 | 0.00 | 97 | 1008.7 |
| 20260906100730 | 70 | 156 | 0.0 | 0.0 | 0.00 | 0.53 | 0.00 | 98 | 1008.7 |
| 20260906100223 | 70 | 157 | 0.0 | 0.0 | 0.00 | 0.53 | 0.00 | 97 | 1008.5 |
| 20260906095939 | 70 | 156 | 0.0 | 0.0 | 0.00 | 0.53 | 0.00 | 98 | 1008.5 |
| 20260906095212 | 70 | 157 | 0.0 | 0.0 | 0.00 | 0.53 | 0.00 | 97 | 1008.4 |
| 20260906094706 | 70 | 156 | 0.0 | 0.0 | 0.00 | 0.53 | 0.00 | 97 | 1008.3 |
| 20260906094200 | 70 | 156 | 0.0 | 0.0 | 0.00 | 0.53 | 0.00 | 97 | 1008.4 |
| 20260906093654 | 71 | 156 | 0.0 | 0.0 | 0.00 | 0.53 | 0.00 | 98 | 1008.3 |
| 20260906093408 | 71 | 156 | 0.0 | 0.0 | 0.00 | 0.53 | 0.00 | 98 | 1008.3 |
| 20260906092642 | 71 | 156 | 0.0 | 0.0 | 0.00 | 0.53 | 0.00 | 98 | 1008.3 |
| 20260906092136 | 71 | 156 | 0.0 | 0.0 | 0.00 | 0.53 | 0.00 | 98 | 1008.2 |
| 20260906091630 | 71 | 156 | 0.0 | 0.0 | 0.00 | 0.53 | 0.00 | 98 | 1008.2 |
| 20260906091123 | 71 | 156 | 0.0 | 0.0 | 0.00 | 0.53 | 0.00 | 98 | 1008.1 |
| 20260906090618 | 71 | 156 | 0.0 | 0.0 | 0.00 | 0.53 | 0.00 | 98 | 1008.1 |
| 20260906090112 | 71 | 156 | 0.0 | 0.0 | 0.00 | 0.53 | 0.00 | 98 | 1008.1 |
| 20260906085810 | 71 | 157 | 0.0 | 0.0 | 0.00 | 0.53 | 0.00 | 98 | 1008.0 |
| 20260906085656 | 71 | 156 | 0.0 | 0.0 | 0.00 | 0.53 | 0.00 | 98 | 1008.1 |
| 20260906084554 | 71 | 156 | 0.0 | 0.0 | 0.00 | 0.53 | 0.00 | 98 | 1008.0 |
| 20260906084309 | 71 | 156 | 0.0 | 0.0 | 0.00 | 0.53 | 0.00 | 98 | 1008.0 |
| 20260906083542 | 71 | 156 | 0.0 | 0.0 | 0.00 | 0.53 | 0.00 | 98 | 1008.0 |
| 20260906083035 | 71 | 157 | 0.0 | 0.0 | 0.00 | 0.53 | 0.00 | 98 | 1008.0 |
| 20260906082747 | 72 | 156 | 0.0 | 0.0 | 0.00 | 0.53 | 0.00 | 98 | 1008.0 |
| 20260906082024 | 72 | 156 | 0.0 | 0.0 | 0.00 | 0.53 | 0.00 | 98 | 1008.0 |
| 20260906081518 | 72 | 156 | 0.0 | 0.0 | 0.00 | 0.53 | 0.00 | 98 | 1007.9 |
| 20260906081012 | 72 | 156 | 0.0 | 0.0 | 0.00 | 0.53 | 0.00 | 98 | 1007.9 |
| 20260906080506 | 72 | 156 | 0.0 | 0.0 | 0.00 | 0.53 | 0.00 | 98 | 1007.8 |
| 20260906075959 | 72 | 157 | 0.0 | 0.0 | 0.00 | 0.53 | 0.00 | 98 | 1007.8 |
| 20260906075454 | 72 | 156 | 0.0 | 0.0 | 0.00 | 0.53 | 0.00 | 98 | 1007.8 |
| 20260906074947 | 72 | 156 | 0.0 | 0.0 | 0.00 | 0.53 | 0.00 | 98 | 1007.7 |
| 20260906074442 | 72 | 156 | 0.0 | 0.0 | 0.00 | 0.53 | 0.00 | 98 | 1007.7 |
| 20260906073936 | 72 | 156 | 0.0 | 0.0 | 0.00 | 0.53 | 0.00 | 98 | 1007.7 |
| 20260906073430 | 72 | 156 | 0.0 | 0.0 | 0.00 | 0.53 | 0.00 | 98 | 1007.7 |
| 20260906072924 | 72 | 156 | 0.0 | 0.0 | 0.00 | 0.53 | 0.00 | 98 | 1007.6 |
| 20260906072418 | 72 | 156 | 0.0 | 0.0 | 0.00 | 0.53 | 0.00 | 98 | 1007.7 |
| 20260906071916 | 72 | 156 | 0.0 | 0.0 | 0.00 | 0.53 | 0.00 | 98 | 1007.6 |
| 20260906071638 | 72 | 156 | 0.0 | 0.0 | 0.00 | 0.53 | 0.00 | 98 | 1007.5 |
| 20260906070914 | 72 | 156 | 0.0 | 0.0 | 0.00 | 0.53 | 0.00 | 98 | 1007.6 |
| 20260906070413 | 72 | 156 | 0.0 | 0.0 | 0.00 | 0.53 | 0.00 | 98 | 1007.5 |
| 20260906065910 | 72 | 156 | 0.0 | 0.0 | 0.00 | 0.53 | 0.00 | 98 | 1007.5 |
| 20260906065409 | 72 | 156 | 0.0 | 0.0 | 0.00 | 0.53 | 0.00 | 98 | 1007.6 |
| 20260906064907 | 72 | 156 | 0.0 | 0.0 | 0.00 | 0.53 | 0.00 | 98 | 1007.6 |
| 20260906064406 | 72 | 156 | 0.0 | 0.0 | 0.00 | 0.53 | 0.00 | 98 | 1007.6 |
| 20260906063904 | 72 | 156 | 0.0 | 0.0 | 0.00 | 0.53 | 0.00 | 98 | 1007.7 |
| 20260906063402 | 72 | 156 | 0.0 | 0.0 | 0.00 | 0.53 | 0.00 | 98 | 1007.7 |
| 20260906062903 | 72 | 156 | 0.0 | 0.0 | 0.00 | 0.53 | 0.00 | 98 | 1007.7 |
| 20260906062403 | 72 | 156 | 0.0 | 0.0 | 0.00 | 0.53 | 0.00 | 98 | 1007.8 |
| 20260906061904 | 72 | 156 | 0.0 | 0.0 | 0.00 | 0.53 | 0.00 | 98 | 1007.8 |
| 20260906061628 | 72 | 156 | 0.0 | 0.0 | 0.00 | 0.53 | 0.00 | 97 | 1007.8 |
| 20260906060905 | 72 | 157 | 0.0 | 0.0 | 0.00 | 0.53 | 0.00 | 97 | 1007.8 |
| 20260906060633 | 72 | 156 | 0.0 | 0.0 | 0.00 | 0.53 | 0.00 | 97 | 1007.8 |
| 20260906060130 | 72 | 156 | 0.0 | 0.0 | 0.00 | 0.53 | 0.00 | 97 | 1007.8 |
| 20260906055407 | 72 | 157 | 0.0 | 0.0 | 0.00 | 0.53 | 0.00 | 97 | 1008.0 |
| 20260906055123 | 72 | 156 | 0.0 | 0.0 | 0.00 | 0.53 | 0.00 | 97 | 1008.0 |
| 20260906054403 | 72 | 156 | 0.0 | 0.0 | 0.00 | 0.53 | 0.00 | 97 | 1008.1 |
| 20260906053903 | 72 | 156 | 0.0 | 0.0 | 0.00 | 0.53 | 0.00 | 97 | 1008.0 |
| 20260906053402 | 72 | 156 | 0.0 | 0.0 | 0.00 | 0.53 | 0.00 | 97 | 1007.9 |
| 20260906052904 | 72 | 156 | 0.0 | 0.0 | 0.00 | 0.53 | 0.00 | 97 | 1008.0 |
| 20260906052403 | 72 | 156 | 0.0 | 0.0 | 0.00 | 0.53 | 0.00 | 97 | 1008.0 |
| 20260906051903 | 72 | 156 | 0.0 | 0.0 | 0.00 | 0.53 | 0.00 | 97 | 1008.2 |
| 20260906051403 | 72 | 156 | 0.0 | 0.0 | 0.00 | 0.53 | 0.00 | 97 | 1008.2 |
| 20260906050904 | 72 | 156 | 0.0 | 0.0 | 0.00 | 0.53 | 0.00 | 97 | 1008.2 |
| 20260906050403 | 72 | 157 | 0.0 | 0.0 | 0.00 | 0.53 | 0.00 | 97 | 1008.2 |
| 20260906045904 | 72 | 156 | 0.0 | 0.0 | 0.00 | 0.53 | 0.00 | 97 | 1008.0 |
| 20260906045402 | 72 | 157 | 0.0 | 0.0 | 0.00 | 0.53 | 0.00 | 97 | 1008.1 |
| 20260906044901 | 72 | 156 | 0.0 | 0.0 | 0.00 | 0.53 | 0.00 | 97 | 1008.2 |
| 20260906044355 | 72 | 156 | 0.0 | 0.0 | 0.00 | 0.53 | 0.00 | 97 | 1008.3 |
| 20260906043849 | 72 | 157 | 0.0 | 0.0 | 0.00 | 0.53 | 0.00 | 97 | 1008.3 |
| 20260906043343 | 72 | 156 | 0.0 | 0.0 | 0.00 | 0.53 | 0.00 | 97 | 1008.3 |
| 20260906042836 | 72 | 157 | 0.0 | 0.0 | 0.00 | 0.53 | 0.00 | 97 | 1008.3 |
| 20260906042331 | 72 | 157 | 0.0 | 0.0 | 0.00 | 0.53 | 0.00 | 97 | 1008.4 |
| 20260906041825 | 72 | 156 | 0.0 | 0.0 | 0.00 | 0.53 | 0.00 | 97 | 1008.5 |
| 20260906041319 | 72 | 156 | 0.0 | 0.0 | 0.00 | 0.53 | 0.00 | 97 | 1008.4 |
| 20260906040813 | 72 | 157 | 0.0 | 0.0 | 0.00 | 0.53 | 0.00 | 97 | 1008.2 |
| 20260906040530 | 72 | 156 | 0.0 | 0.0 | 0.00 | 0.53 | 0.00 | 97 | 1008.2 |
| 20260906040248 | 72 | 156 | 0.0 | 0.0 | 0.00 | 0.53 | 0.53 | 97 | 1008.2 |
| 20260906035306 | 72 | 156 | 0.0 | 0.0 | 0.00 | 0.53 | 0.53 | 97 | 1008.3 |
| 20260906034805 | 72 | 157 | 0.0 | 0.0 | 0.00 | 0.53 | 0.53 | 97 | 1008.3 |
| 20260906034753 | 72 | 156 | 0.0 | 0.0 | 0.00 | 0.53 | 0.53 | 97 | 1008.3 |
| 20260906033804 | 72 | 156 | 0.0 | 0.0 | 0.00 | 0.53 | 0.53 | 97 | 1008.3 |
| 20260906033521 | 72 | 156 | 0.0 | 0.0 | 0.00 | 0.53 | 0.53 | 97 | 1008.3 |
| 20260906032804 | 72 | 156 | 0.0 | 0.0 | 0.00 | 0.53 | 0.53 | 97 | 1008.3 |
| 20260906032301 | 72 | 156 | 0.0 | 0.0 | 0.00 | 0.53 | 0.53 | 97 | 1008.2 |
| 20260906031759 | 72 | 156 | 0.0 | 0.0 | 0.00 | 0.53 | 0.53 | 97 | 1008.2 |
| 20260906031256 | 72 | 156 | 0.0 | 0.0 | 0.00 | 0.53 | 0.53 | 97 | 1008.2 |
| 20260906030758 | 72 | 157 | 0.0 | 0.0 | 0.00 | 0.53 | 0.53 | 97 | 1008.2 |
| 20260906030257 | 72 | 156 | 0.0 | 0.0 | 0.00 | 0.53 | 0.53 | 97 | 1008.1 |
| 20260906025758 | 72 | 157 | 0.0 | 0.0 | 0.00 | 0.53 | 0.53 | 96 | 1008.2 |
| 20260906025257 | 73 | 156 | 0.0 | 0.0 | 0.00 | 0.53 | 0.53 | 96 | 1008.3 |
| 20260906024759 | 73 | 156 | 0.0 | 0.0 | 0.00 | 0.53 | 0.53 | 96 | 1008.2 |
| 20260906024516 | 73 | 156 | 0.0 | 0.0 | 0.00 | 0.53 | 0.53 | 96 | 1008.2 |
| 20260906023757 | 73 | 156 | 0.0 | 0.0 | 0.00 | 0.53 | 0.53 | 96 | 1008.3 |
| 20260906023301 | 73 | 157 | 0.0 | 0.0 | 0.00 | 0.53 | 0.53 | 96 | 1008.3 |
| 20260906022755 | 73 | 157 | 0.0 | 0.0 | 0.00 | 0.53 | 0.53 | 96 | 1008.3 |
| 20260906022249 | 73 | 156 | 0.0 | 0.0 | 0.00 | 0.53 | 0.53 | 96 | 1008.3 |
| 20260906021749 | 73 | 156 | 0.0 | 0.0 | 0.00 | 0.53 | 0.53 | 96 | 1008.2 |
| 20260906021248 | 73 | 156 | 0.0 | 0.0 | 0.00 | 0.53 | 0.53 | 96 | 1008.2 |
| 20260906020745 | 73 | 156 | 0.0 | 0.0 | 0.00 | 0.53 | 0.53 | 96 | 1008.2 |
| 20260906020242 | 73 | 156 | 0.0 | 0.0 | 0.00 | 0.53 | 0.53 | 96 | 1008.3 |
| 20260906015742 | 74 | 156 | 0.0 | 0.0 | 0.00 | 0.53 | 0.53 | 96 | 1008.3 |
| 20260906015244 | 74 | 156 | 0.0 | 0.0 | 0.00 | 0.53 | 0.53 | 96 | 1008.2 |
| 20260906015009 | 74 | 157 | 0.0 | 0.0 | 0.00 | 0.53 | 0.53 | 96 | 1008.3 |
| 20260906014244 | 74 | 156 | 0.0 | 0.0 | 0.00 | 0.53 | 0.53 | 96 | 1008.2 |
| 20260906013742 | 74 | 156 | 0.0 | 0.0 | 0.00 | 0.53 | 0.53 | 96 | 1008.1 |
| 20260906013244 | 74 | 156 | 0.0 | 0.0 | 0.00 | 0.53 | 0.53 | 96 | 1008.0 |
| 20260906012744 | 74 | 156 | 0.0 | 0.0 | 0.00 | 0.53 | 0.53 | 96 | 1008.0 |
| 20260906012244 | 74 | 156 | 0.0 | 0.0 | 0.00 | 0.53 | 0.53 | 96 | 1007.9 |
| 20260906011740 | 74 | 156 | 0.0 | 0.0 | 0.00 | 0.53 | 0.53 | 95 | 1008.0 |
| 20260906011238 | 74 | 156 | 0.0 | 0.0 | 0.00 | 0.53 | 0.53 | 95 | 1007.9 |
| 20260906010740 | 74 | 156 | 0.0 | 0.0 | 0.00 | 0.53 | 0.53 | 95 | 1007.9 |
| 20260906010239 | 74 | 156 | 0.0 | 0.0 | 0.00 | 0.53 | 0.53 | 95 | 1007.7 |
| 20260906005739 | 74 | 156 | 0.0 | 0.0 | 0.00 | 0.53 | 0.53 | 95 | 1007.5 |
| 20260906005239 | 75 | 157 | 0.0 | 0.0 | 0.00 | 0.53 | 0.53 | 95 | 1007.4 |
| 20260906004739 | 75 | 156 | 0.0 | 0.0 | 0.00 | 0.53 | 0.53 | 95 | 1007.3 |
| 20260906004239 | 75 | 156 | 0.0 | 0.0 | 0.00 | 0.53 | 0.53 | 95 | 1007.3 |
| 20260906004012 | 75 | 156 | 0.0 | 0.0 | 0.00 | 0.53 | 0.53 | 94 | 1007.3 |
| 20260906003236 | 75 | 156 | 0.0 | 0.0 | 0.00 | 0.53 | 0.53 | 94 | 1007.4 |
| 20260906002736 | 75 | 156 | 0.0 | 0.0 | 0.00 | 0.53 | 0.53 | 94 | 1007.3 |
| 20260906002235 | 75 | 157 | 0.0 | 0.0 | 0.00 | 0.53 | 0.53 | 94 | 1007.3 |
| 20260906001736 | 75 | 156 | 0.0 | 0.0 | 0.00 | 0.53 | 0.53 | 94 | 1007.3 |
| 20260906001235 | 75 | 156 | 0.0 | 0.0 | 0.00 | 0.53 | 0.53 | 94 | 1007.1 |
| 20260906000735 | 75 | 156 | 0.0 | 0.0 | 0.00 | 0.53 | 0.53 | 94 | 1006.9 |
| 20260906000234 | 75 | 156 | 0.0 | 0.0 | 0.00 | 0.53 | 0.53 | 93 | 1006.9 |
| 20260905235734 | 75 | 156 | 0.0 | 0.0 | 0.00 | 0.53 | 0.53 | 93 | 1006.8 |
| 20260905235235 | 75 | 156 | 0.0 | 0.0 | 0.00 | 0.53 | 0.53 | 93 | 1006.8 |
| 20260905234729 | 75 | 156 | 0.0 | 0.0 | 0.00 | 0.53 | 0.53 | 93 | 1006.7 |
| 20260905234223 | 75 | 156 | 0.0 | 0.0 | 0.00 | 0.53 | 0.53 | 93 | 1006.7 |
| 20260905233716 | 76 | 156 | 0.0 | 0.0 | 0.00 | 0.53 | 0.53 | 92 | 1006.7 |
| 20260905233211 | 76 | 156 | 0.0 | 0.0 | 0.00 | 0.53 | 0.53 | 92 | 1006.7 |
| 20260905232705 | 76 | 156 | 0.0 | 0.0 | 0.00 | 0.53 | 0.53 | 92 | 1006.5 |
| 20260905232158 | 76 | 156 | 0.0 | 0.0 | 0.00 | 0.54 | 0.53 | 91 | 1006.4 |
| 20260905231653 | 76 | 156 | 0.0 | 0.0 | 0.00 | 0.54 | 0.53 | 91 | 1006.4 |
| 20260905231147 | 76 | 156 | 0.0 | 0.0 | 0.00 | 0.54 | 0.53 | 91 | 1006.4 |
| 20260905230641 | 76 | 156 | 0.0 | 0.0 | 0.00 | 0.54 | 0.53 | 91 | 1006.8 |
| 20260905230401 | 76 | 156 | 0.0 | 0.0 | 0.00 | 0.54 | 0.53 | 90 | 1006.9 |
| 20260905225628 | 76 | 156 | 0.0 | 0.0 | 0.00 | 0.54 | 0.53 | 90 | 1007.1 |
| 20260905225123 | 77 | 156 | 0.0 | 0.0 | 0.00 | 0.54 | 0.53 | 90 | 1007.1 |
| 20260905224616 | 77 | 156 | 0.0 | 0.0 | 0.00 | 0.54 | 0.53 | 89 | 1006.9 |
| 20260905224111 | 77 | 156 | 0.0 | 0.0 | 0.00 | 0.54 | 0.53 | 90 | 1006.8 |
| 20260905223605 | 77 | 156 | 0.0 | 0.0 | 0.00 | 0.54 | 0.53 | 89 | 1006.9 |
| 20260905223059 | 78 | 156 | 0.0 | 0.0 | 0.00 | 0.54 | 0.53 | 89 | 1006.9 |
| 20260905222825 | 78 | 156 | 0.0 | 0.0 | 0.00 | 0.54 | 0.53 | 88 | 1006.9 |
| 20260905222047 | 78 | 156 | 0.0 | 0.0 | 0.00 | 0.56 | 0.53 | 88 | 1006.8 |
| 20260905221541 | 78 | 156 | 0.0 | 0.0 | 0.00 | 0.56 | 0.53 | 86 | 1006.8 |
| 20260905221035 | 78 | 156 | 0.0 | 0.0 | 0.00 | 0.57 | 0.53 | 85 | 1006.7 |
| 20260905220529 | 79 | 156 | 0.0 | 0.0 | 0.00 | 0.61 | 0.53 | 85 | 1006.7 |
| 20260905220023 | 80 | 157 | 0.0 | 0.0 | 0.00 | 0.71 | 0.53 | 84 | 1006.6 |
| 20260905215516 | 80 | 158 | 0.0 | 0.0 | 0.00 | 0.74 | 0.53 | 82 | 1006.6 |
| 20260905215011 | 81 | 162 | 0.0 | 0.0 | 0.00 | 0.74 | 0.53 | 81 | 1006.6 |
| 20260905214505 | 81 | 166 | 0.0 | 0.0 | 0.00 | 0.74 | 0.53 | 82 | 1006.7 |
| 20260905214223 | 82 | 168 | 0.0 | 0.0 | 0.00 | 0.74 | 0.53 | 79 | 1006.7 |
| 20260905213452 | 82 | 168 | 0.0 | 0.0 | 0.00 | 0.74 | 0.53 | 81 | 1006.6 |
| 20260905212947 | 82 | 113 | 0.0 | 1.0 | 0.00 | 0.74 | 0.53 | 81 | 1006.6 |
| 20260905212440 | 82 | 113 | 0.0 | 1.0 | 0.00 | 0.74 | 0.53 | 81 | 1006.7 |
| 20260905212158 | 81 | 92 | 0.0 | 1.0 | 0.00 | 0.74 | 0.53 | 83 | 1006.7 |
| 20260905211428 | 82 | 146 | 0.0 | 2.0 | 0.00 | 0.74 | 0.53 | 82 | 1006.7 |
| 20260905210923 | 82 | 216 | 0.0 | 1.0 | 0.00 | 0.74 | 0.53 | 81 | 1006.8 |
| 20260905210416 | 82 | 216 | 0.0 | 1.0 | 0.00 | 0.74 | 0.53 | 84 | 1006.9 |
| 20260905205911 | 80 | 200 | 0.0 | 0.0 | 0.00 | 0.74 | 0.53 | 86 | 1006.8 |
| 20260905205405 | 80 | 51 | 0.0 | 0.0 | 0.00 | 0.74 | 0.53 | 88 | 1006.8 |
| 20260905204859 | 80 | 50 | 0.0 | 0.0 | 0.00 | 0.74 | 0.53 | 90 | 1006.9 |
| 20260905204620 | 79 | 157 | 0.0 | 0.0 | 0.00 | 0.74 | 0.53 | 90 | 1007.0 |
| 20260905203847 | 79 | 182 | 0.0 | 0.0 | 0.00 | 0.74 | 0.53 | 92 | 1006.9 |
| 20260905203832 | 78 | 182 | 0.0 | 0.0 | 0.00 | 0.74 | 0.53 | 94 | 1006.9 |
| 20260905202835 | 78 | 182 | 0.0 | 0.0 | 0.00 | 0.74 | 0.53 | 94 | 1006.9 |
| 20260905202814 | 78 | 182 | 0.0 | 0.0 | 0.00 | 0.74 | 0.53 | 93 | 1006.8 |
| 20260905201823 | 78 | 182 | 0.0 | 0.0 | 0.00 | 0.74 | 0.53 | 94 | 1006.6 |
| 20260905201317 | 78 | 214 | 0.0 | 0.0 | 0.00 | 0.74 | 0.53 | 96 | 1006.6 |
| 20260905200813 | 77 | 214 | 0.0 | 0.0 | 0.00 | 0.74 | 0.53 | 97 | 1006.5 |
| 20260905200314 | 76 | 214 | 0.0 | 0.0 | 0.01 | 0.74 | 0.53 | 97 | 1006.6 |
| 20260905195814 | 76 | 214 | 0.0 | 0.0 | 0.01 | 0.74 | 0.53 | 97 | 1006.7 |
| 20260905195535 | 76 | 214 | 0.0 | 0.0 | 0.01 | 0.74 | 0.53 | 97 | 1006.7 |
| 20260905194814 | 75 | 214 | 0.0 | 0.0 | 0.01 | 0.74 | 0.53 | 97 | 1006.8 |
| 20260905194314 | 75 | 214 | 0.0 | 0.0 | 0.01 | 0.74 | 0.53 | 97 | 1006.9 |
| 20260905194033 | 75 | 214 | 0.0 | 0.0 | 0.01 | 0.74 | 0.53 | 97 | 1007.1 |
| 20260905193313 | 75 | 214 | 0.0 | 0.0 | 0.01 | 0.74 | 0.53 | 97 | 1007.2 |
| 20260905192812 | 75 | 214 | 0.0 | 0.0 | 0.02 | 0.74 | 0.53 | 96 | 1007.4 |
| 20260905192312 | 74 | 214 | 0.0 | 0.0 | 0.03 | 0.74 | 0.53 | 96 | 1007.4 |
| 20260905191812 | 74 | 214 | 0.0 | 0.0 | 0.04 | 0.74 | 0.53 | 96 | 1007.4 |
| 20260905191312 | 75 | 214 | 0.0 | 0.0 | 0.04 | 0.74 | 0.53 | 97 | 1007.4 |
| 20260905190812 | 75 | 214 | 0.0 | 0.0 | 0.04 | 0.74 | 0.53 | 96 | 1007.6 |
| 20260905190532 | 74 | 214 | 0.0 | 0.0 | 0.03 | 0.73 | 0.52 | 96 | 1007.7 |
| 20260905185812 | 74 | 214 | 0.0 | 0.0 | 0.03 | 0.73 | 0.52 | 96 | 1007.8 |
| 20260905185311 | 74 | 214 | 0.0 | 0.0 | 0.03 | 0.73 | 0.52 | 96 | 1007.9 |
| 20260905184813 | 74 | 214 | 0.0 | 0.0 | 0.03 | 0.73 | 0.52 | 96 | 1007.8 |
| 20260905184307 | 74 | 214 | 0.0 | 0.0 | 0.03 | 0.73 | 0.52 | 96 | 1007.6 |
| 20260905183800 | 74 | 214 | 0.0 | 0.0 | 0.03 | 0.73 | 0.52 | 95 | 1007.6 |
| 20260905183515 | 74 | 214 | 0.0 | 0.0 | 0.03 | 0.73 | 0.52 | 95 | 1007.8 |
| 20260905182749 | 74 | 214 | 0.0 | 0.0 | 0.02 | 0.72 | 0.51 | 94 | 1007.6 |
| 20260905182243 | 75 | 214 | 0.0 | 0.0 | 0.01 | 0.71 | 0.50 | 94 | 1007.4 |
| 20260905181737 | 76 | 214 | 0.0 | 0.0 | 0.00 | 0.70 | 0.49 | 94 | 1007.3 |
| 20260905181231 | 76 | 214 | 0.0 | 0.0 | 0.00 | 0.70 | 0.49 | 94 | 1007.4 |
| 20260905180728 | 76 | 214 | 0.0 | 0.0 | 0.00 | 0.70 | 0.49 | 95 | 1007.5 |
| 20260905180219 | 76 | 214 | 0.0 | 0.0 | 0.00 | 0.70 | 0.49 | 95 | 1007.6 |
| 20260905175937 | 76 | 214 | 0.0 | 0.0 | 0.01 | 0.70 | 0.49 | 97 | 1007.7 |
| 20260905175214 | 76 | 214 | 0.0 | 0.0 | 0.01 | 0.70 | 0.49 | 97 | 1007.8 |
| 20260905174715 | 76 | 214 | 0.0 | 0.0 | 0.03 | 0.70 | 0.49 | 97 | 1007.8 |
| 20260905174215 | 75 | 214 | 0.0 | 1.0 | 0.07 | 0.70 | 0.49 | 97 | 1008.0 |
| 20260905173713 | 74 | 215 | 0.0 | 1.0 | 0.15 | 0.70 | 0.49 | 97 | 1008.2 |
| 20260905173214 | 73 | 215 | 0.0 | 0.0 | 0.28 | 0.70 | 0.49 | 96 | 1008.0 |
| 20260905172718 | 73 | 153 | 0.0 | 0.0 | 0.41 | 0.70 | 0.49 | 95 | 1007.8 |
| 20260905172215 | 73 | 153 | 0.0 | 0.0 | 0.44 | 0.70 | 0.49 | 95 | 1008.0 |
| 20260905171714 | 72 | 153 | 0.0 | 0.0 | 0.49 | 0.70 | 0.49 | 95 | 1007.9 |
| 20260905171214 | 72 | 153 | 0.0 | 0.0 | 0.49 | 0.70 | 0.49 | 94 | 1008.3 |
| 20260905170714 | 72 | 153 | 0.0 | 0.0 | 0.49 | 0.70 | 0.49 | 94 | 1008.5 |
| 20260905170215 | 72 | 153 | 0.0 | 1.0 | 0.49 | 0.70 | 0.49 | 93 | 1009.1 |
| 20260905165714 | 73 | 200 | 1.0 | 4.0 | 0.48 | 0.69 | 0.49 | 92 | 1009.2 |
| 20260905165215 | 73 | 202 | 1.0 | 6.0 | 0.48 | 0.69 | 0.48 | 91 | 1009.3 |
| 20260905164932 | 74 | 195 | 1.0 | 5.0 | 0.46 | 0.67 | 0.46 | 91 | 1009.6 |
| 20260905164213 | 75 | 256 | 1.0 | 4.0 | 0.42 | 0.63 | 0.43 | 91 | 1009.5 |
| 20260905163714 | 77 | 18 | 1.0 | 6.0 | 0.34 | 0.55 | 0.35 | 90 | 1009.3 |
| 20260905163213 | 78 | 150 | 0.0 | 6.0 | 0.21 | 0.42 | 0.24 | 89 | 1009.2 |
| 20260905162714 | 79 | 158 | 0.0 | 0.0 | 0.08 | 0.29 | 0.08 | 88 | 1009.2 |
| 20260905162215 | 80 | 200 | 0.0 | 0.0 | 0.05 | 0.26 | 0.06 | 87 | 1009.0 |
| 20260905161714 | 80 | 30 | 0.0 | 0.0 | 0.00 | 0.21 | 0.00 | 84 | 1008.8 |
| 20260905161214 | 80 | 30 | 0.0 | 0.0 | 0.00 | 0.21 | 0.00 | 84 | 1008.6 |
| 20260905160715 | 81 | 30 | 0.0 | 0.0 | 0.00 | 0.21 | 0.00 | 83 | 1008.7 |
| 20260905160214 | 81 | 30 | 0.0 | 0.0 | 0.00 | 0.21 | 0.00 | 82 | 1008.4 |
| 20260905155714 | 81 | 29 | 0.0 | 0.0 | 0.00 | 0.21 | 0.00 | 82 | 1008.1 |
| 20260905155215 | 81 | 29 | 0.0 | 1.0 | 0.00 | 0.21 | 0.00 | 81 | 1008.1 |
| 20260905154715 | 81 | 351 | 0.0 | 1.0 | 0.00 | 0.21 | 0.00 | 83 | 1008.0 |
| 20260905154211 | 81 | 32 | 0.0 | 1.0 | 0.00 | 0.21 | 0.00 | 85 | 1008.1 |
| 20260905153711 | 81 | 31 | 0.0 | 1.0 | 0.00 | 0.21 | 0.00 | 84 | 1007.9 |
| 20260905153210 | 81 | 30 | 0.0 | 2.0 | 0.00 | 0.21 | 0.00 | 84 | 1007.9 |
| 20260905153137 | 80 | 31 | 0.0 | 2.0 | 0.00 | 0.21 | 0.00 | 84 | 1008.2 |
| 20260905152758 | 80 | 30 | 0.0 | 2.0 | 0.00 | 0.21 | 0.00 | 83 | 1008.1 |
| 20260905151709 | 80 | 30 | 0.0 | 2.0 | 0.00 | 0.21 | 0.00 | 83 | 1008.2 |
| 20260905151429 | 80 | 23 | 0.0 | 2.0 | 0.00 | 0.21 | 0.00 | 83 | 1008.2 |
| 20260905150709 | 81 | 27 | 1.0 | 3.0 | 0.00 | 0.21 | 0.00 | 83 | 1008.3 |
| 20260905150211 | 81 | 30 | 1.0 | 3.0 | 0.00 | 0.21 | 0.00 | 83 | 1008.3 |
| 20260905145705 | 80 | 31 | 0.0 | 2.0 | 0.00 | 0.21 | 0.00 | 83 | 1008.2 |
| 20260905145205 | 80 | 36 | 0.0 | 2.0 | 0.00 | 0.21 | 0.00 | 84 | 1008.3 |
| 20260905144707 | 80 | 33 | 0.0 | 2.0 | 0.00 | 0.21 | 0.00 | 84 | 1008.2 |
| 20260905144206 | 80 | 48 | 0.0 | 1.0 | 0.00 | 0.21 | 0.00 | 85 | 1008.2 |
| 20260905143707 | 79 | 37 | 1.0 | 6.0 | 0.00 | 0.21 | 0.00 | 86 | 1008.2 |
| 20260905143206 | 79 | 32 | 1.0 | 6.0 | 0.00 | 0.21 | 0.00 | 87 | 1008.2 |
| 20260905142705 | 78 | 29 | 1.0 | 3.0 | 0.00 | 0.21 | 0.00 | 90 | 1008.2 |
| 20260905142206 | 78 | 34 | 1.0 | 5.0 | 0.00 | 0.21 | 0.00 | 90 | 1008.2 |
| 20260905141707 | 77 | 32 | 0.0 | 5.0 | 0.00 | 0.21 | 0.00 | 93 | 1008.1 |